Location: Habighorst
(52.7089°N, 10.2278°E)
Time: 20:48:22
(UTC+00:00)

AQUARIUS - Pass Details

Date: 13 January 2026
Orbit: 633 x 636 km, 98.0° (Epoch: 16 February)

Event Time Altitude Azimuth Distance (km) Brightness Sun altitude
Rises 06:12:03 0° 15° (NNE) 2,949 7.5 -10.5°
Reaches altitude 10° 06:14:16 10° 16° (NNE) 2,035 6.7 -10.2°
Maximum altitude 06:18:42 81° 104° (ESE) 650 4.3 -9.6°
Drops below altitude 10° 06:23:07 10° 192° (SSW) 2,017 6.8 -9.0°
Sets 06:25:18 0° 194° (SSW) 2,920 7.7 -8.7°
